#timestamp,LO_Frequency,Hit 
1501023615.6,286047040.4,N
1501023635.4,286047039.1,N
1501023655.3,286047036.3,N
1501023675.1,286047034.1,N
1501023695.8,286047033.5,N
1501023715.7,286047031.0,N
1501023735.5,286047036.3,N
1501023755.3,286047043.3,N
1501023775.2,286047044.8,N
1501023795.9,286047043.9,N
1501023815.7,286047038.8,N
1501023835.6,286047040.4,N
1501023855.4,286047042.6,N
1501023875.2,286047038.8,N
1501023895.0,286047038.4,N
1501023895.9,286047038.4,N
1501023915.8,286047037.8,N
1501023935.6,286047036.2,N
1501023955.4,286047031.7,N
1501023975.3,286047032.4,N
1501023995.1,286047034.3,N
1501023996.0,286047034.3,N
1501024015.8,286047034.1,N
1501024035.7,286047036.8,N
1501024055.5,286047040.5,N
1501024075.3,286047041.7,N
1501024095.2,286047039.9,N
1501024115.9,286047042.9,N
1501024135.7,286047047.8,N
1501024155.5,286047046.7,N
1501024175.4,286047043.1,N
1501024195.2,286047047.4,N
1501024215.0,286047047.8,N
1501024215.9,286047047.8,N
1501024235.8,286047051.8,N
1501024255.6,286047056.9,N
1501024275.4,286047055.1,N
1501024295.3,286047053.7,N
1501024315.1,286047055.9,N
1501024316.0,286047055.9,N
1501024335.8,286047061.0,N
1501024355.7,286047062.8,N
1501024375.5,286047063.0,N
1501024395.3,286047061.5,N
1501024415.1,286047059.4,N
1501024435.9,286047056.0,N
1501024455.7,286047055.5,N
1501024475.5,286047049.4,N
1501024495.4,286047046.5,N
1501024515.2,286047047.7,N
1501024535.0,286047050.1,N
1501024535.9,286047050.1,N
1501024555.8,286047053.6,N
1501024575.6,286047059.8,N
1501024595.4,286047063.8,N
1501024615.3,286047073.9,N
1501024635.1,286047072.8,N
1501024636.0,286047072.8,N
1501024655.8,286047069.7,N
1501024675.6,286047063.9,N
1501024695.5,286047067.5,N
1501024715.3,286047068.6,N
1501024735.1,286047072.0,N
1501024755.9,286047067.5,N
1501024775.7,286047069.3,N
1501024795.5,286047081.4,N
1501024815.4,286047089.7,N
1501024835.2,286047098.3,N
1501024855.0,286047099.1,N
1501024855.9,286047099.1,N
1501024875.8,286047094.4,N
1501024895.6,286047090.8,N
1501024915.4,286047081.6,N
1501024935.2,286047077.9,N
1501024955.1,286047072.7,N
1501024956.0,286047072.7,N
1501024975.8,286047067.2,N
1501024995.6,286047066.8,N
1501025015.5,286047066.6,N
1501025035.3,286047063.8,N
1501025055.1,286047062.6,N
1501025075.9,286047065.0,N
1501025095.7,286047064.0,N
1501025115.5,286047063.6,N
1501025135.4,286047062.5,N
1501025155.2,286047066.6,N
1501025175.0,286047065.4,N
1501025175.9,286047065.4,N
1501025195.7,286047066.6,N
1501025215.6,286047071.2,N
1501025235.4,286047071.8,N
1501025255.2,286047080.7,N
1501025275.1,286047082.0,N
1501025276.0,286047082.0,N
1501025295.8,286047080.3,N
1501025315.6,286047077.0,N
1501025335.5,286047073.7,N
1501025355.3,286047070.4,N
1501025375.1,286047067.8,N
1501025395.9,286047069.2,Y
1501025415.7,286047025.8,N
1501025435.5,286047022.5,N
1501025455.4,286047023.9,N
1501025475.2,286047032.5,N
1501025495.0,286047039.0,N
1501025495.9,286047039.0,N
1501025515.8,286047041.4,N
1501025535.6,286047043.5,N
1501025555.4,286047044.7,N
1501025575.2,286047048.0,N
1501025595.1,286047048.6,N
1501025596.0,286047048.6,N
1501025615.8,286047045.6,N
1501025635.6,286047044.7,N
1501025655.5,286047042.6,N
1501025675.3,286047038.9,N
1501025695.1,286047035.9,N
1501025715.9,286047034.7,N
1501025735.7,286047027.1,N
1501025755.5,286047025.0,N
1501025775.4,286047024.3,N
1501025795.2,286047027.6,N
1501025815.0,286047034.1,N
1501025815.9,286047034.1,N
1501025835.7,286047034.2,N
1501025855.6,286047036.2,N
1501025875.4,286047039.9,N
1501025895.2,286047038.4,N
1501025915.1,286047037.6,N
1501025916.0,286047037.6,N
1501025935.8,286047034.3,N
1501025955.6,286047029.3,N
1501025975.5,286047028.4,N
1501025995.3,286047029.8,N
1501026015.1,286047029.2,N
1501026035.9,286047029.3,N
1501026055.7,286047030.0,N
1501026075.5,286047027.8,N
1501026095.3,286047027.7,N
1501026115.2,286047026.3,N
1501026135.0,286047027.8,N
1501026135.9,286047027.8,N
1501026155.7,286047035.9,N
1501026175.6,286047039.0,N
1501026195.4,286047039.8,N
1501026215.2,286047031.8,N
1501026235.1,286047034.6,N
1501026236.0,286047034.6,N
1501026255.8,286047036.0,N
1501026275.6,286047034.3,N
1501026295.5,286047028.5,N
1501026315.3,286047028.3,N
1501026335.1,286047024.4,N
1501026355.8,286047030.3,N
1501026375.7,286047031.4,N
1501026395.5,286047026.3,N
1501026415.3,286047024.0,N
1501026435.2,286047026.3,N
1501026455.9,286047028.5,N
1501026475.7,286047027.6,N
1501026495.6,286047025.8,N
1501026515.4,286047022.4,N
1501026535.2,286047017.8,N
1501026555.0,286047020.4,N
1501026556.0,286047020.4,N
1501026575.8,286047023.9,N
1501026595.6,286047029.6,N
1501026615.4,286047031.0,N
1501026635.3,286047031.2,N
1501026655.1,286047031.0,N
1501026675.8,286047027.5,N
1501026695.7,286047026.2,N
1501026715.5,286047022.1,N
1501026735.3,286047022.4,N
1501026755.2,286047021.6,N
1501026775.9,286047017.7,N
1501026795.7,286047020.3,N
1501026815.5,286047017.9,N
1501026835.4,286047020.5,N
1501026855.2,286047019.2,N
1501026875.0,286047016.1,N
1501026875.9,286047016.1,N
1501026895.8,286047015.9,N
1501026915.6,286047016.3,N
1501026935.4,286047016.0,N
1501026955.3,286047018.5,N
1501026975.1,286047020.7,N
1501026976.0,286047020.7,N
1501026995.8,286047023.6,N
1501027015.7,286047026.1,N
1501027035.5,286047031.7,N
1501027055.3,286047033.5,N
1501027075.2,286047033.1,N
1501027095.9,286047032.4,N
1501027115.7,286047031.3,N
1501027135.5,286047030.7,N
1501027155.4,286047032.9,N
1501027175.2,286047034.9,N
1501027195.0,286047032.8,N
1501027195.9,286047032.8,N
